www.pogodaiklimat.ru

Погода и климат >> Архив погоды >> Россия >> Псковская область >> Гдов


ПОГОДА в Гдове

  • Прогноз погоды в Гдове
  • Монитор погоды в Гдове

АРХИВ ПОГОДЫ в Гдове

Время (UTC), дата Ветер
(напр.,м/с)
 
Видим.   Явления Облачность Т
(С)
Тd
(С)
f
(%)
Тe
(С)
Тes
(С)
Комфортность P
(гПа)
Po
(гПа)
Тmin
(С)
Tmax
(С)
R
(мм)
R24
(мм)
S
(см)
21 11.06 В 2 10 км слаб. ливневой дождь 10/10 600 м
[Cb cap]
+14.3 +13.8 97 +14 +14 1021.3 1016.4
00 12.06 В 2 20 км {ливн. осадки} 10/10 600 м
[Cb calv]
+14.1 +13.1 94 +14 +14 1020.8 1015.9
03 12.06 В 2 20 км 9/6 1000 м
[Sc Ac trans]
+14.6 +13.7 94 +14 +14 1020.7 1015.8 +13.7 3
06 12.06 СВ 4 20 км 9/5 1000 м
[Sc Ac trans]
+16.3 +12.8 80 +16 +17 1021.9 1017.0 +13.7 3
09 12.06 СВ 3 20 км 6/3 600 м
[Cu med, cong Ac trans Ci fib]
+20.2 +12.8 62 +22 +29 комфорт 1022.2 1017.4
12 12.06 СВ 4 20 км 8/5 600 м
[Cu hum Ci fib]
+20.9 +12.3 58 +23 +27 комфорт 1022.4 1017.6
15 12.06 В 5 20 км 3/3 600 м
[Cu hum Ci fib]
+21.3 +11.3 53 +23 +25 комфорт 1021.9 1017.1
18 12.06 СВ 4 20 км 4/1 1000 м
[Sc Ac trans Ci fib]
+17.0 +8.7 58 +17 +17 1023.1 1018.2 +23.0
21 12.06 В 4 20 км 6/4 1000 м
[Sc diur, vesp Ac trans Ci fib]
+13.9 +7.2 64 +13 +13 1024.1 1019.2
00 13.06 В 5 20 км 3/0
[Ci sp]
+12.0 +6.4 69 +10 +10 1023.6 1018.7
03 13.06 В 6 20 км 8/6 600 м
[Cu Sc Ci fib]
+12.5 +7.0 69 +10 +10 1022.9 1018.0 +11.6
06 13.06 В 5
{10}
20 км 10/0
[Ac trans Ci fib]
+16.3 +1.2 36 +15 +17 1012.1 1017.2 +1.2
09 13.06 В 5
{12}
10 км гроза, ливневой дождь 9/9 600 м
[Cb cap Ac trans]
+14.2 +12.6 90 +12 +13 1022.4 1017.5
12 13.06 ЮВ 6-10
{12}
20 км {гроза} 8/1 600 м
[Sc Ac trans Ci fib]
+19.1 +14.5 75 +20 +23 1020.3 1015.5
15 13.06 В 5
{12}
20 км 8/1 600 м
[Sc Ac trans Ci fib]
+21.0 +15.2 69 +24 +26 комфорт 1019.3 1011.5 2
18 13.06 Ю 2 20 км 9/9 600 м
[Cb calv]
+20.6 +16.6 78 +25 +25 комфорт 1018.8 1014.0 +22.3 2
21 13.06 ЮВ 3 18 км {гроза} н/о +18.2 +17.3 94 +19 +19 1016.9 1012.1
00 14.06 В 2
{12}
10 км слаб. ливневой дождь {гроза} 10/10 600 м
[Cb cap]
+16.6 +16.6 100 +17 +17 1015.6 1010.8
03 14.06 ЮЗ 2 10 км {ливн. осадки} 10/5 600 м
[Cb calv Ac trans Ci fib]
+17.1 +17.1 100 +17 +18 1015.7 1010.9 +16.5 11
06 14.06 З 2 20 км {ливн. осадки} 6/1 600 м
[Cu med, cong Ac trans]
+19.8 +18.5 92 +23 +27 комфорт 1015.9 1011.1 +16.5 11
09 14.06 З 2 20 км 10/10 600 м
[Cb calv]
+19.7 +17.6 88 +23 +23 комфорт 1016.8 1012.0
12 14.06 З 2 20 км 10/10 1000 м
[Cu Sc]
+20.7 +17.9 84 +25 +25 комфорт 1017.3 1012.5
15 14.06 З 3 20 км 10/10 600 м
[Cb calv]
+19.4 +17.5 89 +22 +22 комфорт 1017.2 1012.4
18 14.06 СЗ 2 20 км 9/9 600 м
[Cb calv]
+17.5 +16.2 92 +18 +18 1017.4 1012.6 +21.2
21 14.06 СЗ 4 20 км 9/9 600 м
[Cb calv]
+17.0 +13.9 82 +17 +17 1018.1 1013.3
00 15.06 З 4 20 км 9/9 600 м
[Cb calv]
+15.4 +13.0 86 +14 +14 1017.7 1012.8
03 15.06 З 4 20 км 9/9 600 м
[Cb calv]
+14.6 +12.7 88 +13 +13 1017.8 1012.9 +14.5
06 15.06 СЗ 3 20 км 9/9 300 м
[St]
+15.0 +12.6 86 +14 +15 1018.2 1013.3 +14.2
09 15.06 З 4 20 км 8/5 600 м
[Cu med, cong Ci fib]
+17.2 +14.0 81 +17 +21 1018.1 1013.3
12 15.06 З 3 20 км 3/3 600 м
[Cu med, cong]
+21.1 +15.4 70 +24 +32 комфорт 1017.3 1012.5
15 15.06 З 2 20 км 8/8 600 м
[Cu med, cong]
+21.4 +15.0 67 +25 +26 комфорт 1016.4 1011.7
18 15.06 С 2 20 км 3/1 1000 м
[Sc diur, vesp Ci fib]
+20.2 +14.5 70 +23 +23 комфорт 1016.4 1011.6 +22.9
21 15.06 В 1 20 км туман поземный 1/0
[Ci fib]
+11.4 +11.0 97 +11 +11 1016.9 1012.0
00 16.06 СВ 1 10 км туман поземный ясно +9.5 +9.5 100 +9 +9 1017.3 1012.3
03 16.06 ЮЗ 1 20 км ясно +11.9 +11.9 100 +12 +13 1016.6 1011.7 +7.5
06 16.06 З 2 20 км 1/1 600 м
[Cu med, cong]
+18.5 +14.5 78 +20 +26 1016.9 1012.1 +7.5
09 16.06 З 2 20 км 3/1 600 м
[Cu med, cong Ci fib]
+21.0 +12.8 59 +24 +36 комфорт 1016.7 1011.9
12 16.06 З 2 20 км 3/1 600 м
[Cu med, cong Ci fib]
+22.9 +12.1 51 +26 +37 жарко 1015.9 1011.2
15 16.06 ЮЗ 2 20 км 3/1 600 м
[Cu med, cong Ci fib]
+23.9 +12.5 49 +26 +30 жарко 1014.8 1010.1
18 16.06 ЮВ 1 20 км 3/1 600 м
[Cu med, cong Ci fib]
+19.8 +14.7 72 +23 +23 комфорт 1014.4 1009.6 +24.3
21 16.06 штиль 0 20 км 8/1 600 м
[Cu med, cong Ac trans]
+13.5 +13.4 99 +13 +13 1014.5 1009.6
00 17.06 штиль 0 20 км 9/0
[Ac trans Ci fib]
+12.5 +12.5 100 +12 +12 1014.1 1009.2
03 17.06 СЗ 1 20 км 8/0
[Ac trans Ci fib]
+15.6 +15.6 100 +16 +17 1014.5 1009.7 +11.8
06 17.06 СЗ 1 20 км 8/6 1000 м
[Sc Ac trans Ci fib]
+20.4 +13.9 66 +24 +26 комфорт 1014.4 1009.6 +11.8
09 17.06 З 2 20 км 8/8 1000 м
[Sc Ac trans Ci fib]
+21.8 +11.9 53 +24 +27 комфорт 1014.5 1009.8
12 17.06 ЮЗ 3 20 км 8/8 600 м
[Cu Sc Ac trans Ci fib]
+22.8 +14.9 61 +27 +29 душно 1014.3 1009.6
15 17.06 ЮЗ 3 20 км 6/5 600 м
[Cu med, cong Ci fib]
+23.7 +14.1 55 +26 +28 жарко 1013.8 1009.1
18 17.06 ЮЗ 4 20 км 8/4 600 м
[Cb calv Ci fib]
+21.0 +16.4 75 +25 +25 комфорт 1013.5 1008.8 +24.0
21 17.06 З 3 20 км 1/0
[Ci fib]
+18.8 +13.9 73 +20 +20 1014.6 1009.8
00 18.06 З 3 20 км ясно +15.9 +10.4 70 +15 +15 1015.6 1010.8
03 18.06 З 3 20 км ясно +15.8 +12.2 79 +15 +16 1015.7 1010.9 +15.3
06 18.06 З 3 20 км ясно +18.1 +13.3 74 +18 +24 1016.6 1011.8 +15.3
09 18.06 З 4 20 км 1/1 1000 м
[Cu med, cong]
+21.5 +14.3 64 +24 +33 комфорт 1016.8 1012.1
12 18.06 ЮЗ 4 20 км 1/1 1000 м
[Cu med, cong]
+23.6 +13.7 54 +26 +34 жарко 1017.0 1012.3
15 18.06 З 3 20 км 1/1 1000 м
[Cu med, cong]
+23.9 +13.7 53 +26 +30 жарко 1016.5 1011.8
18 18.06 З 3 20 км ясно +21.5 +13.4 60 +24 +24 комфорт 1016.2 1011.5 +24.3

 

Местоположение метеостанции Гдов (Псковская область, Россия): широта 58.73 долгота 27.83 высота над уровнем моря 41 м.

В архиве по умолчанию представлена погода в Гдове за последнюю неделю. Архивные данные за месяц целиком и за предыдущие месяцы, начиная с января 2011 года, Вы можете получить, выбрав интересующий диапазон дат из раскрывающегося списка и нажав кнопку "Ввод!".


*Определитесь, кто Вы:
робот инопланетянин человек

Внимание! Время в таблицах - всемирное. Для получения местного времени необходимо прибавить поправку, которая равна 3 ч.

Смотрите также архив погоды в соседних городах и на ближайших метеорологических станциях:

Погода в Сланцах (Ленинградская область, Россия) (46 км)
Погода в Тиирикое (Эстония) (53 км)
Погода в Йохви (Эстония) (72 км)
Погода в Нарве (Эстония) (73 км)
Погода в Тарту (Эстония) (80 км)
Погода в Йыгеве (Эстония) (81 км)
Погода в Кингисеппе (Ленинградская область, Россия) (84 км)
Погода в Стругах-Красных (Псковская область, Россия) (90 км)
Погода в Вяйке-Маарье (Эстония) (102 км)
Погода в Пскове (Псковская область, Россия) (105 км)

Пояснения к столбцам:

Ветер - указаны скорость ветра в м/с - средняя за 10 мин, порывы в срок и между сроками (в фигурных скобках) и направление, откуда дует ветер: С - северный, СВ - северо-восточный, В - восточный, ЮВ - юго-восточный, Ю - южный, ЮЗ - юго-западный, З - западный, СЗ - северо-западный.
Видимость - горизонтальная дальность видимости в метрах или километрах. При видимости от 1 до 10 км при отсутствии осадков обычно наблюдается дымка, при ухудшении видимости до 1 км и менее - туман. В сухую погоду видимость может ухудшаться дымом, пылью или мглою.
Явления - указаны атмосферные явления, наблюдавшиеся в срок или в последний час перед сроком; фигурными скобками обозначены явления, наблюдавшиеся между сроками (за 1-3 часа до срока); квадратными скобками обозначены град или гололедные отложения с указанием их диаметра в мм.
Облачность - указаны через наклонную черту общая и нижняя облачность в баллах и высота нижней границы облаков в метрах; квадратными скобками обозначены формы облаков: Ci - перистые, Cs - перисто-слоистые, Cc - перисто-кучевые, Ac - высококучевые, As - высокослоистые, Sc - слоисто-кучевые, Ns - слоисто-дождевые, Cu - кучевые, Cb - кучево-дождевые. Подробнее классификацию облаков см. в Атласе облаков (PDF).
T - Температура воздуха - температура, измеренная на высоте 2 м над землей.
Td - Температура точки росы - температура, при понижении до которой содержащийся в воздухе водяной пар достигнет насыщения.
f - Относительная влажность воздуха - влажноcть воздуха, измеренная на высоте 2 м над землей.
Te - Эффективная температура - температура, которую ощущает одетый по сезону человек в тени. Характеристика душности погоды. При расчете учитывается влияние влажности воздуха и скорости ветра на теплоощущения человека.
Tes - Эффективная температура на солнце - температура, которую ощущает человек, с поправкой на солнечный нагрев. Характеристика знойности погоды. Зависит от высоты солнца над горизонтом, облачности и скорости ветра. Ночью, в пасмурную погоду, а также при ветре 12 м/с и более поправка равна нулю.
P - Атмосферное давление - приведенное к уровню моря атмосферное давление.
Po - Атмосферное давление - измеренное на уровне метеостанции атмосферное давление.
Tmin - Минимальная температура - минимум температуры воздуха на высоте 2 м над землей.
Tmax - Максимальная температура - максимум температуры воздуха на высоте 2 м над землей.
R - Количество осадков - Количество выпавших осадков за период времени, мм. При наведении курсора мыши на число - период времени, за который выпало указанное количество осадков.
R24 - Количество осадков - Количество выпавших осадков за 24 часа, мм.
S - Снежный покров - Высота снежного покрова, см. При наведении курсора мыши на число - состояние снежного покрова и степень покрытия местности в баллах.